1515398400.12,22534,8.69,74220.3,-3.07,-4.17,-4.17,0,*56
1515398401.33,22535,8.69,74222.0,-3.07,-4.13,-4.13,0,*57
1515398402.53,22536,8.69,74216.3,-3.07,-4.05,-4.13,0,*53
1515398403.75,22537,8.69,74216.8,-3.05,-4.09,-4.13,0,*5C
1515398404.95,22538,8.69,74220.3,-3.07,-4.05,-4.05,0,*5A
1515398406.19,22539,8.69,74228.8,-3.05,-3.95,-4.01,0,*53
1515398407.42,22540,8.69,74232.5,-3.05,-3.95,-3.95,0,*57
1515398408.62,22541,8.69,74228.0,-3.07,-4.13,-4.05,0,*53
1515398409.83,22542,8.69,74220.8,-3.05,-4.09,-4.09,0,*55
1515398411.11,22543,8.69,74222.5,-3.05,-4.01,-4.01,0,*54
1515398412.38,22544,8.69,74218.8,-3.05,-4.01,-4.01,0,*53
1515398413.59,22545,8.69,74220.0,-3.03,-3.95,-4.05,0,*5A
1515398414.79,22546,8.69,74224.3,-3.03,-4.09,-4.09,0,*57
1515398416.01,22547,8.69,74220.0,-3.05,-4.21,-4.13,0,*51
1515398417.24,22548,8.69,74218.8,-3.05,-4.25,-4.21,0,*5B
1515398418.44,22549,8.69,74216.5,-3.03,-4.09,-4.09,0,*58
1515398419.63,22550,8.69,74214.3,-3.03,-4.17,-4.17,0,*50
1515398420.84,22551,8.69,74212.8,-3.03,-4.29,-4.29,0,*51
1515398422.04,22552,8.69,74212.5,-3.03,-4.21,-4.17,0,*57
1515398423.25,22553,8.69,74208.5,-3.03,-4.21,-4.21,0,*53
1515398424.46,22554,8.69,74200.0,-3.03,-4.21,-4.21,0,*54
1515398425.69,22555,8.69,74198.0,-3.05,-4.13,-4.21,0,*52
1515398426.88,22556,8.69,74200.3,-3.03,-4.17,-4.17,0,*56
1515398428.08,22557,8.69,74198.3,-3.03,-4.29,-4.29,0,*57
1515398429.28,22558,8.69,74202.3,-3.03,-4.09,-4.09,0,*58
1515398430.48,22559,8.69,74202.0,-3.03,-4.05,-4.09,0,*55
1515398431.68,22560,8.69,74198.0,-3.03,-4.17,-4.09,0,*5C
1515398432.91,22561,8.69,74206.0,-3.01,-3.95,-3.91,0,*54
1515398434.12,22562,8.69,74212.0,-3.03,-3.91,-3.91,0,*51
1515398435.32,22563,8.69,74212.5,-3.03,-4.05,-3.95,0,*5E
1515398436.51,22564,8.69,74216.0,-3.03,-4.09,-4.09,0,*57
1515398437.71,22565,8.69,74222.0,-3.03,-4.17,-4.17,0,*56
1515398438.9,22566,8.69,74226.0,-3.03,-4.09,-3.95,0,*57
1515398440.13,22567,8.69,74226.3,-3.01,-3.95,-4.05,0,*58
1515398441.36,22568,8.69,74224.5,-3.01,-3.95,-3.95,0,*59
1515398442.56,22569,8.69,74220.5,-3.03,-4.05,-4.05,0,*5A
1515398443.76,22570,8.69,74216.5,-3.03,-4.29,-4.17,0,*5F
1515398444.96,22571,8.69,74216.5,-3.03,-4.21,-4.17,0,*56
1515398446.18,22572,8.69,74226.5,-3.01,-4.05,-4.05,0,*52
1515398447.41,22573,8.69,74222.0,-3.01,-4.05,-3.95,0,*5D
1515398448.6,22574,8.69,74218.8,-3.03,-4.09,-4.17,0,*59
1515398449.81,22575,8.69,74216.5,-3.03,-4.17,-4.21,0,*52
1515398451.03,22576,8.69,74216.3,-3.01,-4.29,-4.29,0,*56
1515398452.26,22577,8.69,74220.0,-3.01,-4.33,-4.33,0,*57
1515398453.49,22578,8.69,74222.5,-3.01,-4.41,-4.53,0,*5B
1515398454.68,22579,8.69,74224.3,-3.03,-4.45,-4.53,0,*5C
1515398455.88,22580,8.69,74228.5,-3.03,-4.53,-4.57,0,*59
1515398457.1,22581,8.69,74226.3,-3.01,-4.53,-4.45,0,*59
1515398458.29,22582,8.69,74224.5,-3.03,-4.45,-4.45,0,*5F
1515398459.51,22583,8.69,74226.5,-3.01,-4.41,-4.41,0,*5C
1515398460.71,22584,8.69,74220.8,-3.03,-4.41,-4.41,0,*59
1515398461.94,22585,8.69,74222.5,-3.01,-4.29,-4.29,0,*5A
1515398463.17,22586,8.69,74216.3,-3.01,-4.33,-4.41,0,*5C
1515398464.38,22587,8.69,74220.0,-3.01,-4.45,-4.41,0,*5C
1515398465.6,22588,8.69,74220.3,-3.01,-4.53,-4.41,0,*54
1515398466.83,22589,8.69,74224.5,-3.01,-4.41,-4.33,0,*53
1515398468.03,22590,8.69,74226.8,-2.99,-4.29,-4.25,0,*52
1515398469.22,22591,8.69,74224.0,-2.99,-4.37,-4.41,0,*5E
1515398470.44,22592,8.69,74222.3,-2.97,-4.41,-4.49,0,*5A
1515398471.64,22593,8.69,74212.3,-2.99,-4.29,-4.29,0,*5D
1515398472.85,22594,8.69,74218.0,-2.99,-4.25,-4.25,0,*5A
1515398474.08,22595,8.69,74224.0,-2.97,-4.25,-4.25,0,*55
1515398475.27,22596,8.69,74228.0,-2.99,-4.17,-4.05,0,*5B
1515398476.47,22597,8.69,74226.0,-2.99,-4.25,-4.17,0,*58
1515398477.67,22598,8.69,74220.0,-2.99,-4.17,-4.13,0,*52
1515398478.87,22599,8.69,74222.8,-2.99,-4.13,-4.13,0,*57
1515398480.07,22600,8.69,74218.0,-2.99,-4.05,-4.05,0,*54
1515398481.27,22601,8.69,74220.3,-2.99,-4.05,-3.91,0,*5F
1515398482.47,22602,8.69,74218.5,-2.99,-3.91,-3.91,0,*56
1515398483.71,22603,8.69,74222.0,-2.97,-3.91,-3.79,0,*5F
1515398484.94,22604,8.69,74220.8,-2.97,-3.79,-3.79,0,*5E
1515398486.16,22605,8.69,74224.0,-2.97,-3.87,-3.87,0,*5F
1515398487.41,22606,8.69,74226.0,-2.97,-4.01,-3.87,0,*55
1515398488.61,22607,8.69,74228.3,-2.99,-3.79,-3.87,0,*52
1515398489.83,22608,8.69,74230.0,-2.97,-3.87,-3.79,0,*53
1515398491.06,22609,8.69,74226.3,-2.97,-3.79,-3.79,0,*53
1515398492.29,22610,8.69,74224.5,-2.97,-3.91,-3.87,0,*5C
1515398493.52,22611,8.69,74226.5,-2.97,-3.91,-3.91,0,*5A
1515398494.76,22612,8.69,74224.5,-2.99,-3.91,-4.01,0,*59
1515398495.98,22613,8.69,74224.0,-2.97,-3.91,-3.87,0,*5F
1515398497.22,22614,8.69,74228.8,-2.97,-3.91,-3.79,0,*59
1515398498.41,22615,8.69,74220.5,-2.95,-4.09,-3.95,0,*5E
1515398499.63,22616,8.69,74222.0,-2.97,-4.17,-4.13,0,*59
1515398500.86,22617,8.69,74222.5,-2.97,-4.13,-4.13,0,*5C
1515398502.08,22618,8.69,74222.8,-2.97,-4.17,-4.13,0,*57
1515398503.33,22619,8.69,74226.3,-2.97,-4.05,-4.01,0,*56
1515398504.56,22620,8.69,74226.8,-2.97,-3.91,-3.91,0,*58
1515398505.79,22621,8.69,74230.5,-2.97,-3.91,-3.91,0,*59
1515398507.02,22622,8.69,74228.8,-2.97,-3.87,-3.91,0,*5D
1515398508.24,22623,8.69,74230.3,-2.97,-3.87,-3.79,0,*5A
1515398509.44,22624,8.69,74230.5,-2.95,-3.83,-3.95,0,*59
1515398510.64,22625,8.69,74230.3,-2.95,-3.87,-3.87,0,*5F
1515398511.84,22626,8.69,74226.5,-2.95,-3.87,-3.83,0,*58
1515398513.04,22627,8.69,74228.0,-2.95,-3.87,-3.75,0,*50
1515398514.25,22628,8.69,74234.5,-2.91,-3.83,-3.75,0,*5F
1515398515.46,22629,8.69,74228.8,-2.95,-3.75,-3.75,0,*53
1515398516.67,22630,8.69,74224.0,-2.95,-3.83,-3.83,0,*5B
1515398517.86,22631,8.69,74228.5,-2.95,-3.87,-3.87,0,*5A
1515398519.07,22632,8.69,74228.8,-2.91,-3.83,-3.75,0,*54
1515398520.28,22633,8.69,74230.5,-2.95,-3.87,-3.75,0,*55
1515398521.48,22634,8.69,74226.8,-2.95,-3.83,-3.75,0,*56
1515398522.69,22635,8.69,74226.0,-2.95,-3.83,-3.75,0,*57
1515398523.9,22636,8.69,74224.8,-2.95,-3.83,-3.83,0,*5D
1515398525.1,22637,8.69,74222.8,-2.95,-3.87,-3.83,0,*58
1515398526.29,22638,8.69,74222.8,-2.95,-3.87,-3.95,0,*50
1515398527.49,22639,8.69,74226.8,-2.95,-3.87,-3.87,0,*52
1515398528.69,22640,8.69,74228.5,-2.95,-3.87,-3.87,0,*5C
1515398529.89,22641,8.69,74228.8,-2.95,-3.87,-3.83,0,*59
1515398531.09,22642,8.69,74226.0,-2.91,-3.87,-3.83,0,*5E
1515398532.29,22643,8.69,74220.8,-2.95,-3.83,-3.83,0,*5F
1515398533.5,22644,8.69,74222.0,-2.95,-3.83,-3.75,0,*51
1515398534.71,22645,8.69,74222.5,-2.91,-3.87,-3.75,0,*50
1515398535.91,22646,8.69,74218.5,-2.91,-3.87,-3.83,0,*5A
1515398537.16,22647,8.69,74222.3,-2.89,-3.71,-3.75,0,*52
1515398538.37,22648,8.69,74220.3,-2.91,-3.75,-3.75,0,*50
1515398539.57,22649,8.69,74220.8,-2.95,-3.75,-3.75,0,*55
1515398540.78,22650,8.69,74224.8,-2.91,-3.83,-3.83,0,*59
1515398541.99,22651,8.69,74228.5,-2.91,-3.83,-3.75,0,*51
1515398543.24,22652,8.69,74224.8,-2.89,-3.79,-3.71,0,*5A
1515398544.44,22653,8.69,74228.0,-2.91,-3.87,-3.83,0,*5E
1515398545.67,22654,8.69,74226.3,-2.91,-4.01,-4.09,0,*55
1515398546.93,22655,8.69,74226.3,-2.91,-4.01,-4.01,0,*5C
1515398548.16,22656,8.69,74224.3,-2.91,-4.01,-3.95,0,*55
1515398549.36,22657,8.69,74226.0,-2.91,-3.95,-3.87,0,*5D
1515398550.57,22658,8.69,74230.3,-2.91,-3.83,-3.75,0,*58
1515398551.78,22659,8.69,74224.8,-2.91,-3.75,-3.75,0,*50
1515398552.99,22660,8.69,74230.5,-2.91,-3.75,-3.75,0,*5A
1515398554.24,22661,8.69,74226.5,-2.89,-3.79,-3.71,0,*5A
1515398555.47,22662,8.69,74226.3,-2.89,-3.83,-3.79,0,*54
1515398556.7,22663,8.69,74220.5,-2.89,-3.95,-3.95,0,*50
1515398557.92,22664,8.69,74226.8,-2.89,-4.05,-3.95,0,*59
1515398559.14,22665,8.69,74222.3,-2.89,-4.05,-3.95,0,*58
1515398560.36,22666,8.69,74226.0,-2.89,-4.05,-4.09,0,*59
1515398561.58,22667,8.69,74220.0,-2.89,-4.05,-3.95,0,*5A
1515398562.8,22668,8.69,74226.5,-2.89,-3.95,-3.95,0,*5B
1515398564.03,22669,8.69,74224.8,-2.89,-3.91,-3.83,0,*59
1515398565.26,22670,8.69,74226.5,-2.89,-3.95,-3.95,0,*52
1515398566.49,22671,8.69,74226.3,-2.89,-3.95,-3.91,0,*57
1515398567.71,22672,8.69,74226.5,-2.89,-4.05,-3.95,0,*5E
1515398568.92,22673,8.69,74224.8,-2.87,-3.91,-3.91,0,*5F
1515398570.14,22674,8.69,74226.0,-2.91,-4.09,-4.01,0,*57
1515398571.4,22675,8.69,74224.8,-2.91,-4.01,-4.01,0,*5E
1515398572.6,22676,8.69,74226.3,-2.91,-4.09,-4.09,0,*5D
1515398573.81,22677,8.69,74224.8,-2.91,-4.21,-4.21,0,*5C
1515398575.01,22678,8.69,74230.0,-2.95,-4.13,-4.13,0,*57
1515398576.22,22679,8.69,74228.8,-2.95,-4.13,-4.21,0,*57
1515398577.42,22680,8.69,74226.3,-2.91,-4.09,-4.13,0,*5F
1515398578.62,22681,8.69,74228.8,-2.91,-4.09,-4.09,0,*55
1515398579.84,22682,8.69,74228.3,-2.89,-4.09,-4.17,0,*50
1515398581.05,22683,8.69,74230.3,-2.91,-4.21,-4.25,0,*53
1515398582.27,22684,8.69,74226.3,-2.89,-4.09,-4.09,0,*59
1515398583.48,22685,8.69,74224.8,-2.89,-4.09,-4.17,0,*57
1515398584.7,22686,8.69,74224.8,-2.89,-4.17,-4.17,0,*5B
1515398585.9,22687,8.69,74224.0,-2.91,-4.13,-4.25,0,*56
1515398587.11,22688,8.69,74224.3,-2.91,-4.09,-4.13,0,*57
1515398588.32,22689,8.69,74224.0,-2.91,-4.21,-4.21,0,*5D
1515398589.52,22690,8.69,74220.8,-2.91,-4.25,-4.33,0,*52
1515398590.73,22691,8.69,74212.3,-2.91,-4.21,-4.13,0,*55
1515398591.93,22692,8.69,74212.8,-2.91,-4.09,-3.95,0,*55
1515398593.13,22693,8.69,74208.5,-2.91,-4.13,-4.09,0,*5D
1515398594.34,22694,8.69,74210.5,-2.91,-4.13,-4.13,0,*51
1515398595.59,22695,8.69,74214.0,-2.91,-4.01,-4.01,0,*50
1515398596.8,22696,8.69,74214.5,-2.91,-4.13,-4.13,0,*53
1515398598.05,22697,8.69,74212.5,-2.91,-4.01,-4.01,0,*52
1515398599.31,22698,8.69,74214.0,-2.91,-4.01,-4.01,0,*5D
1515398600.51,22699,8.69,74218.3,-2.91,-4.13,-4.09,0,*57
1515398601.77,22700,8.75,74220.0,-2.91,-4.01,-4.01,0,*5D
1515398603.0,22701,8.69,74216.5,-2.91,-4.01,-4.09,0,*54
1515398604.25,22702,8.69,74218.8,-2.91,-4.01,-4.01,0,*5F
1515398605.51,22703,8.69,74212.8,-2.91,-4.01,-4.01,0,*5E
1515398606.77,22704,8.69,74212.5,-2.91,-4.01,-4.01,0,*59
1515398607.97,22705,8.69,74214.0,-2.91,-3.95,-4.09,0,*5A
1515398609.19,22706,8.69,74212.8,-2.91,-4.21,-4.25,0,*5F
1515398610.41,22707,8.69,74208.8,-2.89,-4.29,-4.21,0,*5B
1515398611.63,22708,8.69,74216.0,-2.89,-4.41,-4.41,0,*5C
1515398612.87,22709,8.75,74222.8,-2.89,-4.21,-4.21,0,*5D
1515398614.09,22710,8.69,74214.3,-2.89,-4.21,-4.17,0,*50
1515398615.31,22711,8.69,74216.5,-2.89,-4.17,-4.17,0,*54
1515398616.52,22712,8.75,74224.5,-2.91,-4.21,-4.13,0,*5F
1515398617.72,22713,8.69,74226.0,-2.91,-4.13,-4.09,0,*54
1515398618.93,22714,8.69,74222.5,-2.91,-4.21,-4.13,0,*59
1515398620.13,22715,8.69,74218.5,-2.91,-4.13,-4.13,0,*59
1515398621.34,22716,8.69,74214.5,-2.91,-4.13,-4.21,0,*5B
1515398622.55,22717,8.69,74218.5,-2.91,-4.25,-4.21,0,*5F
1515398623.75,22718,8.69,74224.5,-2.91,-4.25,-4.25,0,*54
1515398624.96,22719,8.69,74220.8,-2.91,-4.21,-4.13,0,*54
1515398626.16,22720,8.69,74220.0,-2.91,-4.13,-4.09,0,*54
1515398627.37,22721,8.69,74222.5,-2.91,-4.33,-4.33,0,*5E
1515398628.57,22722,8.75,74226.5,-2.91,-4.33,-4.45,0,*5C
1515398629.79,22723,8.69,74220.3,-2.89,-4.33,-4.29,0,*5E
1515398631.01,22724,8.69,74218.5,-2.89,-4.29,-4.33,0,*59
1515398632.24,22725,8.69,74224.3,-2.89,-4.29,-4.21,0,*5B
1515398633.45,22726,8.69,74224.0,-2.91,-4.33,-4.33,0,*59
1515398634.68,22727,8.69,74224.0,-2.89,-4.21,-4.29,0,*59
1515398635.9,22728,8.69,74216.8,-2.89,-4.21,-4.33,0,*5D
1515398637.13,22729,8.69,74216.8,-2.89,-4.21,-4.29,0,*57
1515398638.36,22730,8.69,74220.3,-2.89,-4.29,-4.29,0,*57
1515398639.58,22731,8.69,74220.3,-2.89,-4.33,-4.41,0,*53
1515398640.81,22732,8.69,74218.8,-2.89,-4.33,-4.29,0,*5E
1515398642.04,22733,8.69,74220.0,-2.89,-4.29,-4.29,0,*54
1515398643.27,22734,8.69,74218.0,-2.89,-4.21,-4.21,0,*53
1515398644.5,22735,8.69,74210.8,-2.89,-4.21,-4.21,0,*52
1515398645.72,22736,8.69,74208.5,-2.89,-4.09,-4.09,0,*51
1515398646.95,22737,8.69,74210.8,-2.89,-4.09,-4.05,0,*5C
1515398648.17,22738,8.69,74214.5,-2.89,-4.09,-4.05,0,*53
1515398649.39,22739,8.75,74212.3,-2.89,-4.21,-4.09,0,*54
1515398650.6,22740,8.69,74210.3,-2.87,-4.21,-4.09,0,*54
1515398651.83,22741,8.69,74206.3,-2.89,-4.21,-4.29,0,*59
1515398653.06,22742,8.69,74210.8,-2.89,-4.29,-4.21,0,*5A
1515398654.28,22743,8.69,74212.0,-2.89,-4.17,-4.21,0,*56
1515398655.51,22744,8.69,74208.8,-2.89,-4.21,-4.09,0,*5E
1515398656.71,22745,8.69,74210.5,-2.87,-4.29,-4.17,0,*56
1515398657.93,22746,8.69,74208.5,-2.85,-4.25,-4.13,0,*5F
1515398659.13,22747,8.69,74208.0,-2.87,-4.29,-4.17,0,*54
1515398660.36,22748,8.69,74208.0,-2.89,-4.29,-4.21,0,*50
1515398661.56,22749,8.69,74204.0,-2.87,-4.29,-4.21,0,*5F
1515398662.78,22750,8.69,74210.3,-2.89,-4.29,-4.33,0,*5A
1515398663.98,22751,8.69,74210.0,-2.87,-4.41,-4.33,0,*5B
1515398665.18,22752,8.69,74210.8,-2.87,-4.33,-4.41,0,*58
1515398666.41,22753,8.69,74208.0,-2.85,-4.29,-4.37,0,*51
1515398667.63,22754,8.69,74210.3,-2.85,-4.37,-4.49,0,*50
1515398668.85,22755,8.69,74218.0,-2.85,-4.37,-4.49,0,*51
1515398670.05,22756,8.69,74214.8,-2.87,-4.41,-4.45,0,*5D
1515398671.25,22757,8.69,74212.3,-2.87,-4.33,-4.33,0,*58
1515398672.47,22758,8.69,74214.0,-2.85,-4.29,-4.29,0,*55
1515398673.67,22759,8.69,74210.3,-2.87,-4.41,-4.41,0,*56
1515398674.89,22760,8.69,74218.3,-2.85,-4.37,-4.29,0,*51
1515398676.09,22761,8.69,74216.8,-2.83,-4.29,-4.29,0,*59
1515398677.32,22762,8.75,74216.3,-2.85,-4.13,-4.25,0,*59
1515398678.55,22763,8.69,74218.0,-2.85,-4.17,-4.25,0,*5C
1515398679.78,22764,8.69,74222.3,-2.85,-4.25,-4.37,0,*59
1515398681.0,22765,8.69,74222.0,-2.85,-4.37,-4.37,0,*5B
1515398682.2,22766,8.69,74218.8,-2.83,-4.25,-4.29,0,*52
1515398683.4,22767,8.69,74220.5,-2.83,-4.29,-4.37,0,*50
1515398684.63,22768,8.75,74224.8,-2.85,-4.25,-4.37,0,*55
1515398685.85,22769,8.69,74220.0,-2.85,-4.17,-4.29,0,*5A
1515398687.05,22770,8.69,74224.0,-2.83,-4.17,-4.25,0,*58
1515398688.25,22771,8.69,74222.8,-2.83,-4.17,-4.25,0,*59
1515398689.47,22772,8.69,74218.0,-2.85,-4.17,-4.25,0,*5C
1515398690.7,22773,8.69,74214.5,-2.85,-4.29,-4.37,0,*53
1515398691.89,22774,8.69,74210.0,-2.83,-4.37,-4.41,0,*5C
1515398693.09,22775,8.69,74206.3,-2.83,-4.17,-4.29,0,*51
1515398694.29,22776,8.69,74204.5,-2.83,-4.25,-4.25,0,*5F
1515398695.51,22777,8.69,74204.5,-2.81,-4.13,-4.25,0,*59
1515398696.71,22778,8.69,74202.3,-2.83,-4.17,-4.25,0,*50
1515398697.91,22779,8.69,74204.0,-2.83,-4.25,-4.25,0,*50
1515398699.11,22780,8.69,74206.3,-2.83,-4.29,-4.29,0,*56
1515398700.3,22781,8.69,74210.8,-2.83,-4.29,-4.29,0,*57
1515398701.5,22782,8.75,74214.3,-2.83,-4.29,-4.29,0,*54
1515398702.7,22783,8.69,74208.0,-2.83,-4.25,-4.29,0,*59
1515398703.89,22784,8.69,74200.0,-2.83,-4.37,-4.37,0,*52
1515398705.11,22785,8.69,74206.5,-2.81,-4.33,-4.33,0,*51
1515398706.31,22786,8.69,74212.0,-2.83,-4.29,-4.29,0,*50
1515398707.53,22787,8.69,74214.8,-2.81,-4.33,-4.33,0,*53
1515398708.73,22788,8.69,74222.5,-2.83,-4.29,-4.25,0,*52
1515398709.93,22789,8.75,74220.0,-2.83,-4.17,-4.29,0,*52
1515398711.12,22790,8.69,74218.5,-2.83,-4.29,-4.29,0,*57
1515398712.33,22791,8.69,74222.5,-2.83,-4.25,-4.37,0,*55
1515398713.52,22792,8.75,74222.8,-2.83,-4.29,-4.41,0,*5B
1515398714.75,22793,8.69,74224.3,-2.81,-4.21,-4.33,0,*55
1515398715.97,22794,8.69,74226.5,-2.81,-4.33,-4.37,0,*55
1515398717.19,22795,8.75,74226.5,-2.81,-4.37,-4.37,0,*50
1515398718.38,22796,8.69,74220.8,-2.83,-4.49,-4.41,0,*59
1515398719.57,22797,8.69,74218.8,-2.83,-4.41,-4.37,0,*51
1515398720.78,22798,8.69,74216.5,-2.81,-4.37,-4.33,0,*59
1515398722.0,22799,8.69,74218.8,-2.81,-4.37,-4.33,0,*58
1515398723.22,22800,8.69,74216.3,-2.81,-4.33,-4.25,0,*54
1515398724.41,22801,8.69,74220.0,-2.83,-4.17,-4.17,0,*50
1515398725.61,22802,8.69,74224.3,-2.83,-4.17,-4.13,0,*57
1515398726.8,22803,8.75,74230.3,-2.83,-4.17,-4.25,0,*53
1515398728.02,22804,8.69,74228.3,-2.81,-4.13,-4.13,0,*57
1515398729.24,22805,8.75,74230.5,-2.85,-4.17,-4.17,0,*52
1515398730.44,22806,8.69,74224.5,-2.83,-4.17,-4.25,0,*56
1515398731.63,22807,8.75,74226.5,-2.83,-4.17,-4.17,0,*56
1515398732.83,22808,8.69,74226.8,-2.83,-4.05,-4.13,0,*5E
1515398734.02,22809,8.69,74226.3,-2.83,-4.05,-4.05,0,*58
1515398735.28,22810,8.75,74226.5,-2.85,-4.01,-4.05,0,*52
1515398736.47,22811,8.75,74226.5,-2.83,-4.05,-4.13,0,*56
1515398737.7,22812,8.69,74226.8,-2.83,-3.91,-4.01,0,*5C
1515398738.95,22813,8.75,74228.5,-2.83,-4.01,-4.01,0,*53
1515398740.2,22814,8.69,74224.0,-2.83,-4.01,-4.01,0,*54
1515398741.42,22815,8.69,74224.0,-2.83,-4.05,-4.01,0,*51
1515398742.62,22816,8.75,74232.3,-2.83,-4.05,-4.05,0,*56
1515398743.81,22817,8.69,74226.0,-2.83,-4.05,-4.05,0,*57
1515398745.02,22818,8.75,74224.5,-2.83,-3.91,-3.91,0,*58
1515398746.24,22819,8.75,74222.5,-2.83,-4.01,-3.91,0,*57
1515398747.44,22820,8.69,74220.3,-2.83,-3.87,-3.87,0,*53
1515398748.64,22821,8.69,74220.8,-2.83,-3.87,-3.79,0,*53
1515398749.84,22822,8.75,74224.8,-2.83,-3.79,-3.87,0,*50
1515398751.04,22823,8.69,74222.3,-2.83,-3.79,-3.75,0,*5C
1515398752.24,22824,8.69,74224.0,-2.83,-3.91,-3.87,0,*50
1515398753.47,22825,8.75,74226.0,-2.83,-4.01,-3.91,0,*58
1515398754.69,22826,8.69,74224.0,-2.81,-3.87,-3.75,0,*5A
1515398755.9,22827,8.69,74226.0,-2.79,-3.83,-3.79,0,*54
1515398757.12,22828,8.75,74224.3,-2.81,-3.87,-3.87,0,*59
1515398758.33,22829,8.75,74220.8,-2.81,-3.87,-3.87,0,*58
1515398759.53,22830,8.75,74214.5,-2.83,-4.05,-3.91,0,*58
1515398760.76,22831,8.69,74212.8,-2.83,-4.01,-3.91,0,*5D
1515398761.95,22832,8.69,74220.5,-2.83,-4.13,-4.13,0,*50
1515398763.15,22833,8.75,74220.0,-2.83,-4.25,-4.25,0,*51
1515398764.34,22834,8.69,74220.0,-2.83,-4.17,-4.17,0,*56
1515398765.54,22835,8.69,74220.5,-2.83,-4.17,-4.13,0,*53
1515398766.77,22836,8.75,74224.0,-2.85,-4.13,-4.13,0,*52
1515398767.96,22837,8.69,74218.8,-2.83,-4.05,-4.05,0,*55
1515398769.21,22838,8.69,74220.3,-2.85,-4.05,-4.01,0,*58
1515398770.46,22839,8.69,74218.5,-2.85,-4.05,-4.01,0,*59
1515398771.66,22840,8.69,74218.0,-2.83,-4.13,-4.13,0,*55
1515398772.85,22841,8.69,74218.8,-2.83,-4.13,-4.05,0,*53
1515398774.08,22842,8.75,74224.3,-2.85,-4.13,-4.13,0,*51
1515398775.3,22843,8.69,74222.8,-2.85,-4.13,-4.05,0,*57
1515398776.5,22844,8.69,74222.0,-2.83,-4.13,-4.13,0,*51
1515398777.69,22845,8.69,74220.0,-2.83,-4.13,-4.17,0,*54
1515398778.92,22846,8.75,74224.8,-2.85,-4.25,-4.25,0,*55
1515398780.14,22847,8.75,74226.5,-2.85,-4.17,-4.13,0,*50
1515398781.34,22848,8.69,74222.5,-2.83,-4.13,-4.05,0,*5A
1515398782.53,22849,8.69,74222.5,-2.83,-4.13,-4.13,0,*5C
1515398783.76,22850,8.69,74222.3,-2.83,-4.01,-4.05,0,*50
1515398784.99,22851,8.69,74222.8,-2.85,-4.13,-4.13,0,*53
1515398786.18,22852,8.69,74224.0,-2.83,-4.13,-4.17,0,*52
1515398787.4,22853,8.75,74224.8,-2.85,-4.25,-4.17,0,*50
1515398788.59,22854,8.69,74226.8,-2.83,-4.13,-4.17,0,*54
1515398789.82,22855,8.69,74226.5,-2.85,-4.05,-4.05,0,*57
1515398791.04,22856,8.75,74224.0,-2.83,-3.91,-4.01,0,*5C
1515398792.32,22857,8.75,74226.5,-2.85,-4.01,-4.01,0,*55
1515398793.55,22858,8.69,74224.0,-2.83,-4.01,-4.05,0,*58
1515398794.78,22859,8.75,74230.0,-2.83,-4.01,-4.05,0,*59
1515398796.03,22860,8.69,74224.5,-2.83,-4.01,-4.01,0,*57
1515398797.31,22861,8.69,74234.5,-2.85,-4.01,-4.01,0,*50
1515398798.53,22862,8.75,74238.8,-2.85,-4.05,-4.17,0,*50
1515398799.73,22863,8.69,74232.0,-2.83,-4.29,-4.37,0,*5B
1515398800.95,22864,8.69,74234.0,-2.85,-4.29,-4.29,0,*55
1515398802.15,22865,8.75,74230.0,-2.83,-4.17,-4.25,0,*53
1515398803.35,22866,8.69,74226.8,-2.83,-4.25,-4.25,0,*51
1515398804.55,22867,8.69,74220.5,-2.83,-4.17,-4.25,0,*51
1515398805.74,22868,8.69,74222.8,-2.83,-4.13,-4.17,0,*5B
1515398806.93,22869,8.75,74230.3,-2.83,-4.37,-4.37,0,*5E
1515398808.13,22870,8.69,74224.5,-2.83,-4.29,-4.29,0,*56
1515398809.33,22871,8.69,74230.5,-2.83,-4.29,-4.25,0,*5B
1515398810.52,22872,8.75,74232.0,-2.83,-4.17,-4.25,0,*55
1515398811.72,22873,8.69,74230.8,-2.83,-4.25,-4.17,0,*54
1515398812.91,22874,8.69,74230.5,-2.83,-4.37,-4.37,0,*52
1515398814.11,22875,8.69,74228.0,-2.83,-4.29,-4.29,0,*53
1515398815.3,22876,8.75,74228.3,-2.83,-4.37,-4.37,0,*50
1515398816.5,22877,8.69,74234.0,-2.83,-4.29,-4.37,0,*5E
1515398817.69,22878,8.75,74226.3,-2.83,-4.37,-4.37,0,*5E
1515398818.89,22879,8.75,74226.0,-2.83,-4.37,-4.37,0,*5F
1515398820.08,22880,8.69,74220.3,-2.83,-4.37,-4.37,0,*59
1515398821.3,22881,8.69,74216.0,-2.85,-4.37,-4.37,0,*5E
1515398822.53,22882,8.69,74220.8,-2.85,-4.29,-4.37,0,*52
1515398823.75,22883,8.69,74218.3,-2.85,-4.37,-4.37,0,*5C
1515398824.98,22884,8.69,74222.8,-2.85,-4.41,-4.49,0,*53
1515398826.2,22885,8.69,74220.5,-2.85,-4.41,-4.53,0,*59
1515398827.42,22886,8.75,74228.3,-2.85,-4.49,-4.53,0,*52
1515398828.65,22887,8.75,74234.8,-2.85,-4.49,-4.49,0,*58
1515398829.87,22888,8.69,74228.0,-2.85,-4.41,-4.53,0,*54
1515398831.06,22889,8.75,74230.5,-2.87,-4.45,-4.45,0,*54
1515398832.28,22890,8.69,74226.8,-2.85,-4.41,-4.41,0,*5E
1515398833.5,22891,8.75,74230.3,-2.85,-4.37,-4.49,0,*56
1515398834.7,22892,8.75,74232.3,-2.87,-4.45,-4.53,0,*59
1515398835.92,22893,8.75,74232.5,-2.85,-4.41,-4.41,0,*5D
1515398837.12,22894,8.75,74230.0,-2.87,-4.41,-4.41,0,*58
1515398838.32,22895,8.69,74230.5,-2.87,-4.41,-4.41,0,*59
1515398839.52,22896,8.69,74230.0,-2.87,-4.33,-4.41,0,*5F
1515398840.72,22897,8.75,74232.8,-2.87,-4.33,-4.33,0,*5B
1515398841.92,22898,8.69,74232.0,-2.87,-4.29,-4.29,0,*54
1515398843.12,22899,8.69,74232.0,-2.83,-4.17,-4.29,0,*5C
1515398844.35,22900,8.69,74234.3,-2.85,-4.25,-4.29,0,*5A
1515398845.58,22901,8.69,74234.3,-2.85,-4.25,-4.29,0,*5B
1515398846.8,22902,8.69,74234.0,-2.85,-4.13,-4.17,0,*50
1515398847.99,22903,8.75,74236.3,-2.83,-4.13,-4.17,0,*57
1515398849.21,22904,8.69,74234.3,-2.85,-4.13,-4.17,0,*56
1515398850.41,22905,8.69,74236.5,-2.83,-4.05,-4.13,0,*52
1515398851.63,22906,8.69,74234.3,-2.85,-4.05,-3.91,0,*5A
1515398852.85,22907,8.69,74236.8,-2.85,-4.17,-4.17,0,*51
1515398854.07,22908,8.75,74242.0,-2.85,-4.17,-4.17,0,*5E
1515398855.26,22909,8.69,74230.8,-2.83,-4.37,-4.37,0,*59
1515398856.49,22910,8.69,74222.8,-2.85,-4.29,-4.29,0,*57
1515398857.72,22911,8.75,74228.8,-2.85,-4.25,-4.25,0,*56
1515398858.91,22912,8.75,74232.8,-2.83,-4.37,-4.29,0,*5C
1515398860.14,22913,8.75,74230.5,-2.85,-4.29,-4.25,0,*58
1515398861.37,22914,8.69,74224.8,-2.85,-4.25,-4.17,0,*52
1515398862.56,22915,8.69,74224.3,-2.83,-4.37,-4.25,0,*57
1515398863.78,22916,8.69,74230.8,-2.85,-4.37,-4.29,0,*5E
1515398864.98,22917,8.69,74228.0,-2.83,-4.37,-4.37,0,*56
1515398866.2,22918,8.69,74228.5,-2.85,-4.37,-4.29,0,*50
1515398867.42,22919,8.69,74228.0,-2.85,-4.37,-4.29,0,*51
1515398868.64,22920,8.75,74228.3,-2.85,-4.37,-4.29,0,*5B
1515398869.86,22921,8.75,74236.5,-2.85,-4.37,-4.29,0,*5A
1515398871.09,22922,8.75,74236.3,-2.85,-4.37,-4.37,0,*56
1515398872.28,22923,8.75,74234.8,-2.83,-4.29,-4.25,0,*5D
1515398873.51,22924,8.75,74228.8,-2.85,-4.29,-4.29,0,*50
1515398874.74,22925,8.75,74226.3,-2.85,-4.37,-4.29,0,*5E
1515398875.96,22926,8.69,74214.8,-2.85,-4.29,-4.29,0,*52
1515398877.15,22927,8.69,74210.5,-2.83,-4.37,-4.29,0,*5A
1515398878.38,22928,8.69,74216.8,-2.85,-4.37,-4.37,0,*5C
1515398879.6,22929,8.75,74220.5,-2.85,-4.37,-4.29,0,*52
1515398880.82,22930,8.69,74218.0,-2.85,-4.37,-4.29,0,*5A
1515398882.02,22931,8.75,74218.5,-2.87,-4.33,-4.41,0,*53
1515398883.23,22932,8.75,74218.3,-2.87,-4.33,-4.41,0,*50
1515398884.42,22933,8.69,74218.8,-2.87,-4.41,-4.33,0,*51
1515398885.62,22934,8.75,74224.5,-2.87,-4.33,-4.33,0,*53
1515398886.83,22935,8.69,74224.3,-2.87,-4.33,-4.41,0,*57
1515398888.03,22936,8.69,74224.5,-2.87,-4.33,-4.29,0,*5A
1515398889.26,22937,8.69,74224.5,-2.89,-4.33,-4.29,0,*55
1515398890.46,22938,8.69,74226.0,-2.87,-4.33,-4.29,0,*54
1515398891.66,22939,8.69,74230.3,-2.87,-4.29,-4.29,0,*5E
1515398892.87,22940,8.75,74228.8,-2.87,-4.21,-4.21,0,*50
1515398894.07,22941,8.75,74230.8,-2.87,-4.29,-4.33,0,*5A
1515398895.28,22942,8.75,74234.0,-2.87,-4.21,-4.21,0,*52
1515398896.51,22943,8.75,74228.0,-2.89,-4.29,-4.21,0,*55
1515398897.74,22944,8.75,74228.3,-2.89,-4.21,-4.17,0,*5F
1515398898.94,22945,8.69,74232.3,-2.87,-4.21,-4.17,0,*50
1515398900.16,22946,8.69,74236.5,-2.85,-4.13,-4.13,0,*54
1515398901.37,22947,8.75,74238.0,-2.87,-4.29,-4.29,0,*57
1515398902.59,22948,8.75,74228.5,-2.89,-4.29,-4.21,0,*5E
1515398903.82,22949,8.75,74234.3,-2.89,-4.29,-4.21,0,*5F
1515398905.06,22950,8.75,74232.8,-2.89,-4.21,-4.21,0,*5F
1515398906.28,22951,8.75,74230.8,-2.89,-4.29,-4.21,0,*56
1515398907.51,22952,8.75,74232.8,-2.89,-4.33,-4.29,0,*56
1515398908.73,22953,8.75,74232.3,-2.89,-4.29,-4.29,0,*5C
1515398909.97,22954,8.75,74234.5,-2.89,-4.21,-4.21,0,*5B